Palma de Mallorca, Spain

5:04 AM CET on December 03, 2016 (GMT +0100)
Palma de Mallorca

Weather History for 08306 - November, 2012

Change the Weather History Date:

Tuesday, November 13, 2012

  Actual Average Record
Temperature  
Mean Temperature 63 °F -  
Max Temperature 68 °F - - ()
Min Temperature 58 °F - - ()
Degree Days  
Heating Degree Days 2    
Growing Degree Days 13 (Base 50)    
Moisture  
Dew Point 59 °F    
Average Humidity 85    
Maximum Humidity 94    
Minimum Humidity 54    
Precipitation  
Precipitation 0.04 in - - ()
Sea Level Pressure  
Sea Level Pressure 29.98 in    
Wind  
Wind Speed 20 mph ()    
Max Wind Speed 32 mph    
Max Gust Speed 47 mph    
Visibility 5.2 miles    
Events Rain    
T = Trace of Precipitation, MM = Missing Value Source: Averaged Metar Reports

Daily Weather History Graph

Daily Weather History Graph

Search for Another Location

Airport or City:

Trip Planner

Search our weather history database for the weather conditions in past years. The results will help you decide how hot, cold, wet, or windy it might be!

Date:

Astronomy

Nov. 13, 2012 Rise Set
Actual Time 7:31 AM CET 5:35 PM CET
Civil Twilight 7:02 AM CET 6:03 PM CET
Nautical Twilight 6:30 AM CET 6:36 PM CET
Astronomical Twilight 5:58 AM CET 7:07 PM CET
Moon 6:50 AM CET (11/13) 5:15 PM CET (11/13)
Length of Visible Light 11h 01m
Length of Day
10h 03m
Waning Crescent, 0% of the Moon is Illuminated
Nov 13
Waning Crescent
Nov 13
New
Nov 20
First Quarter
Nov 28
Full
Dec 6
Last Quarter

Hourly Weather History & Observations

Time (CET) Temp. Dew Point Humidity Pressure Visibility Wind Dir Wind Speed Gust Speed Precip Events Conditions
12:00 AM 60.8 °F 50.0 °F 68% 30.09 in 6.2 mi NNE 16.1 mph 27.6 mph N/A   Partly Cloudy
12:30 AM 59.0 °F 50.0 °F 72% 30.09 in 6.2 mi NE 18.4 mph - N/A   Partly Cloudy
1:00 AM 59 °F 47 °F 54% 30.09 in 12 mi NE 23.0 mph - -   Scattered Clouds
1:00 AM 60.8 °F 50.0 °F 68% 30.06 in 6.2 mi NE 25.3 mph - N/A   Partly Cloudy
1:30 AM 60.8 °F 50.0 °F 68% 30.06 in 6.2 mi NE 21.9 mph - N/A   Partly Cloudy
2:00 AM 59.0 °F 50.0 °F 72% 30.06 in 6.2 mi NE 25.3 mph 39.1 mph N/A   Partly Cloudy
3:00 AM 59.0 °F 50.0 °F 72% 30.04 in 6.2 mi NE 21.9 mph 33.4 mph N/A   Partly Cloudy
3:30 AM 59.0 °F 50.0 °F 72% 30.06 in 6.2 mi NE 17.3 mph 31.1 mph N/A   Partly Cloudy
4:00 AM 59.0 °F 51.8 °F 77% 30.04 in 6.2 mi NE 24.2 mph 36.8 mph N/A   Partly Cloudy
4:30 AM 59.0 °F 51.8 °F 77% 30.01 in 6.2 mi ENE 27.6 mph 46.0 mph N/A   Partly Cloudy
5:00 AM 59.0 °F 51.8 °F 77% 30.01 in 6.2 mi ENE 28.8 mph 40.3 mph N/A   Partly Cloudy
5:30 AM 60.8 °F 53.6 °F 77% 30.01 in 6.2 mi NE 31.1 mph 47.2 mph N/A   Partly Cloudy
6:00 AM 60.8 °F 53.6 °F 77% 30.01 in 6.2 mi NE 26.5 mph 38.0 mph N/A   Partly Cloudy
6:30 AM 60.8 °F 53.6 °F 77% 30.01 in 6.2 mi NE 20.7 mph 33.4 mph N/A   Scattered Clouds
7:00 AM 60 °F 52 °F 68% 30.02 in 12 mi NE 13.8 mph - -   Mostly Cloudy
7:00 AM 60.8 °F 55.4 °F 82% 30.01 in 6.2 mi NE 15.0 mph - N/A   Scattered Clouds
7:30 AM 60.8 °F 55.4 °F 82% 30.01 in 6.2 mi NE 20.7 mph - N/A   Mostly Cloudy
8:00 AM 60.8 °F 57.2 °F 88% 30.01 in 5.0 mi NE 18.4 mph - N/A   Mostly Cloudy
8:30 AM 60.8 °F 57.2 °F 88% 30.01 in 5.0 mi NE 24.2 mph - N/A   Light Drizzle
9:00 AM 60.8 °F 57.2 °F 88% 30.04 in 2.2 mi NE 19.6 mph - N/A   Light Drizzle
9:08 AM 60.8 °F 59.0 °F 94% 30.04 in 1.8 mi NE 17.3 mph - N/A   Light Drizzle
9:30 AM 60.8 °F 59.0 °F 94% 30.04 in 1.8 mi NE 16.1 mph 27.6 mph N/A   Drizzle
9:37 AM 60.8 °F 59.0 °F 94% 30.04 in 2.2 mi NE 15.0 mph - N/A   Light Drizzle
10:00 AM 60.8 °F 59.0 °F 94% 30.04 in 2.5 mi NE 20.7 mph - N/A   Light Drizzle
10:17 AM 60.8 °F 59.0 °F 94% 30.01 in 3.1 mi NE 24.2 mph 36.8 mph N/A   Light Drizzle
10:30 AM 60.8 °F 59.0 °F 94% 30.01 in 6.2 mi NE 26.5 mph 39.1 mph N/A   Light Drizzle
11:00 AM 62.6 °F 59.0 °F 88% 30.01 in 6.2 mi NE 25.3 mph 40.3 mph N/A   Light Drizzle
11:30 AM 62.6 °F 59.0 °F 88% 29.98 in 6.2 mi NE 24.2 mph 39.1 mph N/A   Light Drizzle
12:00 PM 62.6 °F 59.0 °F 88% 29.95 in 6.2 mi NE 29.9 mph 42.6 mph N/A   Light Drizzle
12:30 PM 62.6 °F 60.8 °F 94% 29.95 in 6.2 mi NE 28.8 mph 41.4 mph N/A   Light Drizzle
1:00 PM 62 °F 58 °F 84% 29.93 in 6 mi NE 28.8 mph - - Rain Light Drizzle
1:00 PM 62.6 °F 60.8 °F 94% 29.92 in 5.6 mi NE 31.1 mph 42.6 mph N/A   Light Drizzle
1:30 PM 64.4 °F 60.8 °F 88% 29.92 in 6.2 mi NE 32.2 mph 44.9 mph N/A   Mostly Cloudy
2:00 PM 66.2 °F 60.8 °F 83% 29.89 in 6.2 mi NE 27.6 mph 42.6 mph N/A   Mostly Cloudy
2:30 PM 64.4 °F 62.6 °F 94% 29.89 in 5.0 mi NE 28.8 mph 42.6 mph N/A Rain Light Rain
3:00 PM 66.2 °F 62.6 °F 88% 29.89 in 5.0 mi ENE 25.3 mph 38.0 mph N/A Rain Light Rain
3:30 PM 66.2 °F 62.6 °F 88% 29.89 in 3.7 mi NE 21.9 mph - N/A Rain Rain
4:00 PM 66.2 °F 64.4 °F 94% 29.92 in 5.6 mi ENE 18.4 mph 31.1 mph N/A   Mostly Cloudy
4:30 PM 66.2 °F 64.4 °F 94% 29.92 in 5.6 mi ENE 21.9 mph - N/A   Mostly Cloudy
5:00 PM 66.2 °F 64.4 °F 94% 29.92 in 5.6 mi NE 21.9 mph - N/A   Mostly Cloudy
5:30 PM 66.2 °F 64.4 °F 94% 29.89 in 5.6 mi ENE 23.0 mph - N/A   Mostly Cloudy
6:00 PM 68.0 °F 64.4 °F 88% 29.89 in 5.0 mi NE 23.0 mph - N/A   Mostly Cloudy
6:30 PM 68.0 °F 64.4 °F 88% 29.92 in 5.0 mi ENE 19.6 mph - N/A   Mostly Cloudy
6:32 PM 68.0 °F 64.4 °F 88% 29.92 in 4.3 mi ENE 20.7 mph - N/A Rain Rain
7:00 PM 66 °F 62 °F 85% 29.94 in 4 mi ENE 20.7 mph - -   Mist
7:00 PM 68.0 °F 64.4 °F 88% 29.92 in 4.3 mi ENE 19.6 mph - N/A   Mostly Cloudy
7:30 PM 68.0 °F 64.4 °F 88% 29.92 in 4.3 mi NE 18.4 mph - N/A   Mostly Cloudy
8:30 PM 66.2 °F 64.4 °F 94% 29.95 in 3.1 mi ENE 17.3 mph - N/A Rain Rain
9:00 PM 66.2 °F 64.4 °F 94% 29.95 in 3.1 mi NE 12.7 mph - N/A Rain Rain
9:05 PM 66.2 °F 64.4 °F 94% 29.95 in 3.1 mi NE 12.7 mph - N/A Rain Rain
9:25 PM 66.2 °F 64.4 °F 94% 29.95 in 3.7 mi ENE 13.8 mph - N/A   Mostly Cloudy
9:30 PM 66.2 °F 64.4 °F 94% 29.95 in 3.7 mi ENE 13.8 mph - N/A   Mostly Cloudy
10:00 PM 68.0 °F 64.4 °F 88% 29.95 in 3.7 mi NE 15.0 mph - N/A   Mostly Cloudy
10:30 PM 68.0 °F 64.4 °F 88% 29.95 in 3.7 mi ENE 9.2 mph - N/A   Mostly Cloudy
11:00 PM 68.0 °F 64.4 °F 88% 29.95 in 3.7 mi ENE 10.4 mph - N/A   Mostly Cloudy
11:30 PM 68.0 °F 64.4 °F 88% 29.95 in 3.7 mi ENE 12.7 mph - N/A   Mostly Cloudy